Eelde, Netherlands

2:56 PM CEST on August 17, 2017 (GMT +0200)
Eelde

Weather History for EHGG - January, 2013

Change the Weather History Date:

Monday, January 14, 2013

  Actual Average Record
Temperature  
Mean Temperature 24 °F -  
Max Temperature 28 °F 39 °F 51 °F (2007)
Min Temperature 19 °F 29 °F 19 °F (2013)
Degree Days  
Heating Degree Days 42    
Moisture  
Dew Point 21 °F    
Average Humidity 87    
Maximum Humidity 93    
Minimum Humidity 62    
Precipitation  
Precipitation 0.00 in 0.07 in - ()
Sea Level Pressure  
Sea Level Pressure 29.94 in    
Wind  
Wind Speed 3 mph ()    
Max Wind Speed 6 mph    
Max Gust Speed -    
Visibility 5.0 miles    
Events      
Averages and records for this station are not official NWS values.
T = Trace of Precipitation, MM = Missing Value Source: Averaged Metar Reports

Daily Weather History Graph

Daily Weather History Graph

Search for Another Location

Airport or City:

Trip Planner

Search our weather history database for the weather conditions in past years. The results will help you decide how hot, cold, wet, or windy it might be!

Date:

Astronomy

Jan. 14, 2013 Rise Set
Actual Time 8:40 AM CET 4:45 PM CET
Civil Twilight 8:00 AM CET 5:25 PM CET
Nautical Twilight 7:16 AM CET 6:09 PM CET
Astronomical Twilight 6:34 AM CET 6:51 PM CET
Moon 9:33 AM CET (1/14) 8:49 PM CET (1/14)
Length of Visible Light 9h 25m
Length of Day
8h 04m
Waxing Crescent, 9% of the Moon is Illuminated
Jan 14
Waxing Crescent
Jan 19
First Quarter
Jan 27
Full
Feb 3
Last Quarter
Feb 10
New

Hourly Weather History & Observations

Time (CET) Temp. Windchill Dew Point Humidity Pressure Visibility Wind Dir Wind Speed Gust Speed Precip Events Conditions
12:25 AM 23.0 °F 18.4 °F 21.2 °F 93% 30.09 in 4.3 mi NE 3.5 mph - N/A   Unknown
12:55 AM 23.0 °F 18.4 °F 21.2 °F 93% 30.06 in 4.3 mi NE 3.5 mph - N/A   Overcast
1:00 AM 25 °F - 23 °F 90% 30.09 in 5 mi NNE 4.5 mph - -   Mist
1:25 AM 26.6 °F 22.6 °F 23.0 °F 86% 30.06 in 5.6 mi NNE 3.5 mph - N/A   Overcast
1:55 AM 26.6 °F - 24.8 °F 93% 30.06 in 5.0 mi Variable 2.3 mph - N/A   Overcast
2:25 AM 26.6 °F - 23.0 °F 86% 30.04 in 5.0 mi North 2.3 mph - N/A   Mostly Cloudy
2:55 AM 24.8 °F 17.9 °F 23.0 °F 93% 30.04 in 4.3 mi North 5.8 mph - N/A   Partly Cloudy
3:25 AM 24.8 °F 19.1 °F 23.0 °F 93% 30.04 in 4.3 mi NNE 4.6 mph - N/A   Unknown
3:55 AM 24.8 °F 19.1 °F 23.0 °F 93% 30.04 in 4.3 mi NNE 4.6 mph - N/A   Partly Cloudy
4:00 AM 24 °F - 22 °F 90% 30.05 in 4 mi NNE 2.2 mph - -   Mist
4:25 AM 24.8 °F 20.5 °F 23.0 °F 93% 30.04 in 4.3 mi NNE 3.5 mph - N/A   Unknown
4:55 AM 24.8 °F 19.1 °F 23.0 °F 93% 30.04 in 3.7 mi NNE 4.6 mph - N/A   Unknown
5:25 AM 23.0 °F 18.4 °F 21.2 °F 93% 30.01 in 3.7 mi NE 3.5 mph - N/A   Unknown
5:55 AM 24.8 °F 20.5 °F 21.2 °F 86% 30.01 in 3.7 mi NNE 3.5 mph - N/A   Mostly Cloudy
6:25 AM 24.8 °F 19.1 °F 21.2 °F 86% 30.01 in 5.6 mi NNE 4.6 mph - N/A   Scattered Clouds
6:55 AM 24.8 °F 19.1 °F 23.0 °F 93% 30.01 in 5.6 mi NNE 4.6 mph - N/A   Overcast
7:00 AM 25 °F - 22 °F 83% 30.01 in 6 mi NNE 4.5 mph - -   Partly Cloudy
7:25 AM 23.0 °F 17.0 °F 19.4 °F 86% 29.98 in 6.2 mi ENE 4.6 mph - N/A   Partly Cloudy
7:55 AM 23.0 °F 18.4 °F 21.2 °F 93% 29.98 in 6.2 mi ENE 3.5 mph - N/A   Overcast
8:25 AM 23.0 °F 18.4 °F 21.2 °F 93% 29.98 in 5.0 mi East 3.5 mph - N/A   Unknown
8:55 AM 23.0 °F 18.4 °F 21.2 °F 93% 29.98 in 5.0 mi ESE 3.5 mph - N/A   Unknown
9:25 AM 21.2 °F 16.4 °F 19.4 °F 93% 29.98 in 4.3 mi East 3.5 mph - N/A   Unknown
9:55 AM 23.0 °F - 21.2 °F 93% 29.98 in 3.1 mi Calm Calm - N/A   Mist
10:00 AM 21 °F - 19 °F 89% 29.99 in 3 mi Calm Calm - -   Mist
10:25 AM 21.2 °F 16.4 °F 19.4 °F 93% 29.98 in 3.1 mi ENE 3.5 mph - N/A   Unknown
10:55 AM 23.0 °F - 21.2 °F 93% 29.98 in 3.1 mi ENE 2.3 mph - N/A   Mist
11:25 AM 24.8 °F 20.5 °F 23.0 °F 93% 29.95 in 3.7 mi East 3.5 mph - N/A   Mostly Cloudy
11:55 AM 26.6 °F 21.2 °F 23.0 °F 86% 29.95 in 5.0 mi East 4.6 mph - N/A   Mostly Cloudy
12:25 PM 26.6 °F - 23.0 °F 86% 29.95 in 6.2 mi Variable 2.3 mph - N/A   Overcast
12:55 PM 26.6 °F - 23.0 °F 86% 29.92 in 5.6 mi Variable 2.3 mph - N/A   Overcast
1:00 PM 27 °F - 23 °F 77% 29.94 in 6 mi East 2.2 mph - -   Mist
1:25 PM 26.6 °F - 23.0 °F 86% 29.92 in 6.2 mi Calm Calm - N/A   Unknown
1:55 PM 28.4 °F - 23.0 °F 80% 29.89 in 6.2 mi Variable 1.2 mph - N/A   Partly Cloudy
2:25 PM 28.4 °F 24.6 °F 21.2 °F 74% 29.89 in 6.2 mi SE 3.5 mph - N/A   Overcast
2:55 PM 26.6 °F 20.0 °F 21.2 °F 80% 29.89 in 6.2 mi South 5.8 mph - N/A   Overcast
3:25 PM 26.6 °F - 19.4 °F 74% 29.89 in 6.2 mi Variable 1.2 mph - N/A   Overcast
3:55 PM 28.4 °F - 19.4 °F 69% 29.89 in 6.2 mi Calm Calm - N/A   Mostly Cloudy
4:00 PM 28 °F - 20 °F 62% 29.90 in 11 mi Calm Calm - -   Overcast
4:25 PM 26.6 °F - 19.4 °F 74% 29.89 in 6.2 mi Variable 2.3 mph - N/A   Mostly Cloudy
4:55 PM 24.8 °F 19.1 °F 19.4 °F 80% 29.89 in 6.2 mi WSW 4.6 mph - N/A   Overcast
5:25 PM 24.8 °F 19.1 °F 19.4 °F 80% 29.86 in 6.2 mi SW 4.6 mph - N/A   Mostly Cloudy
5:55 PM 24.8 °F - 19.4 °F 80% 29.86 in 6.2 mi Variable 1.2 mph - N/A   Unknown
6:25 PM 23.0 °F - 19.4 °F 86% 29.86 in 6.2 mi SSW 2.3 mph - N/A   Unknown
6:55 PM 21.2 °F - 19.4 °F 93% 29.86 in 5.0 mi SSE 2.3 mph - N/A   Unknown
7:00 PM 22 °F - 19 °F 84% 29.88 in 5 mi SSE 2.2 mph - -   Mist
7:25 PM 19.4 °F 14.3 °F 17.6 °F 93% 29.86 in 4.3 mi SE 3.5 mph - N/A   Unknown
7:55 PM 21.2 °F 16.4 °F 19.4 °F 93% 29.86 in 4.3 mi ESE 3.5 mph - N/A   Unknown
8:25 PM 21.2 °F 16.4 °F 19.4 °F 93% 29.86 in 3.7 mi SE 3.5 mph - N/A   Unknown
8:55 PM 21.2 °F 16.4 °F 19.4 °F 93% 29.83 in 4.3 mi SE 3.5 mph - N/A   Unknown
9:25 PM 21.2 °F 13.6 °F 19.4 °F 93% 29.83 in 5.0 mi SSE 5.8 mph - N/A   Unknown
9:55 PM 21.2 °F 14.9 °F 17.6 °F 86% 29.83 in 4.3 mi ESE 4.6 mph - N/A   Unknown
10:00 PM 20 °F - 18 °F 86% 29.83 in 4 mi ESE 4.5 mph - -   Mist
10:25 PM 21.2 °F 13.6 °F 17.6 °F 86% 29.80 in 4.3 mi SE 5.8 mph - N/A   Unknown
10:55 PM 21.2 °F 13.6 °F 19.4 °F 93% 29.80 in 3.7 mi SE 5.8 mph - N/A   Unknown
11:25 PM 19.4 °F 12.8 °F 17.6 °F 93% 29.80 in 3.7 mi ESE 4.6 mph - N/A   Unknown
11:55 PM 21.2 °F 16.4 °F 17.6 °F 86% 29.80 in 3.7 mi SE 3.5 mph - N/A   Unknown